This is the latest recevied weather packets stored in our database for station/object NQ9F. If no packets are shown the sender has not sent any weather packets the latest 10 day(s).
| Time | Temp. | Humidity | Pressure | Rain* | Wind** | Luminosity | Snow |
|---|---|---|---|---|---|---|---|
| 1777851714 | 25.56° C | 34% | 1015.3 hPa | 0 mm | - | 233 W/m² | - |
| 1777851410 | 26.11° C | 34% | 1015.4 hPa | 0 mm | - | 255 W/m² | - |
| 1777851106 | 26.11° C | 34% | 1015.1 hPa | 0 mm | - | 271 W/m² | - |
| 1777850803 | 26.11° C | 33% | 1015.4 hPa | 0 mm | - | 299 W/m² | - |
| 1777850500 | 26.11° C | 34% | 1015.4 hPa | 0 mm | - | 317 W/m² | - |
| 1777850198 | 26.11° C | 35% | 1015.3 hPa | 0 mm | - | 344 W/m² | - |
| 1777849894 | 26.11° C | 35% | 1015.5 hPa | 0 mm | - | 369 W/m² | - |
| 1777849591 | 26.11° C | 33% | 1015.9 hPa | 0 mm | - | 394 W/m² | - |
| 1777849288 | 26.11° C | 34% | 1015.8 hPa | 0 mm | - | 421 W/m² | - |
| 1777848986 | 26.11° C | 33% | 1015.9 hPa | 0 mm | - | 430 W/m² | - |
| 1777848685 | 26.11° C | 33% | 1015.9 hPa | 0 mm | - | 381 W/m² | - |
| 1777848383 | 26.11° C | 33% | 1015.9 hPa | 0 mm | - | 489 W/m² | - |
| 1777848081 | 26.11° C | 33% | 1015.9 hPa | 0 mm | - | 483 W/m² | - |
| 1777847779 | 26.11° C | 33% | 1015.9 hPa | 0 mm | - | 555 W/m² | - |
| 1777847474 | 26.11° C | 35% | 1016 hPa | 0 mm | - | 531 W/m² | - |
| 1777847172 | 26.11° C | 34% | 1015.9 hPa | 0 mm | - | 606 W/m² | - |
| 1777846870 | 26.11° C | 35% | 1016.1 hPa | 0 mm | - | 575 W/m² | - |
| 1777846568 | 26.67° C | 36% | 1015.9 hPa | 0 mm | - | 589 W/m² | - |
| 1777846265 | 26.11° C | 34% | 1016 hPa | 0 mm | - | 615 W/m² | - |
| 1777845962 | 26.11° C | 34% | 1016.2 hPa | 0 mm | - | 645 W/m² | - |
| 1777845658 | 26.11° C | 33% | 1016.3 hPa | 0 mm | - | 515 W/m² | - |
| 1777845355 | 26.11° C | 33% | 1016.2 hPa | 0 mm | - | 611 W/m² | - |
| 1777845052 | 26.67° C | 33% | 1016.4 hPa | 0 mm | - | 622 W/m² | - |
| 1777844750 | 26.11° C | 32% | 1016.4 hPa | 0 mm | - | 730 W/m² | - |
| 1777844447 | 26.11° C | 30% | 1016.7 hPa | 0 mm | - | 731 W/m² | - |
* Rain latest hour (hover to see other rain measurements)
** Current wind speed in m/s (hover to see current wind gust speed)